This demonstration page uses our WeatherBlox Daily Observations layout. Learn more.

Hourly Observations for September 30, 2015

Temp ( °F °C ) Dew Point ( °F °C ) Humidity (%) Winds ( mph kmh ) Pressure ( in mb ) Visibility ( mi km ) Precip ( " mm )
12:15 am 00:15 Clear 52 11.2 48 9.1 87 87 ESE 5 7 30.18 1022 10 16.0934 0 0
12:35 am 00:35 Clear 51 10.8 48 8.8 88 88 ESE 5 7 30.18 1022 10 16.0934 0 0
12:55 am 00:55 Mostly Cloudy 51 10.8 48 8.8 88 88 ESE 3 6 30.18 1022 10 16.0934 0 0
1:15 am 01:15 Partly Cloudy 51 10.8 47 8.6 86 86 ESE 3 6 30.18 1022 10 16.0934 0 0
1:35 am 01:35 Mostly Cloudy 51 10.8 47 8.6 86 86 ESE 5 7 30.18 1022 10 16.0934 0 0
1:55 am 01:55 Cloudy 53 11.5 48 9 85 85 Calm 30.18 1022 10 16.0934 0 0
2:15 am 02:15 Cloudy 53 11.5 48 9 85 85 ESE 6 9 30.15 1021 10 16.0934 0 0
2:35 am 02:35 Partly Cloudy 51 10.3 46 7.8 85 85 ESE 7 11 30.18 1022 10 16.0934 0 0
2:55 am 02:55 Clear 51 10.5 45 7.4 81 81 SE 7 11 30.15 1021 10 16.0934 0 0
3:15 am 03:15 Clear 51 10.3 45 7 80 80 SE 7 11 30.18 1022 10 16.0934 0 0
3:35 am 03:35 Clear 49 9.4 44 6.7 83 83 ESE 6 9 30.18 1022 10 16.0934 0 0
3:50 am 03:50 Clear 49 9.5 44 6.8 83 83 ESE 6 9 30.18 1022 10 16.0934 0 0
4:15 am 04:15 Clear 50 10 44 6.5 79 79 Calm 30.18 1022 10 16.0934 0 0
4:35 am 04:35 Clear 49 9.5 43 6.3 81 81 SE 3 6 30.18 1022 10 16.0934 0 0
4:55 am 04:55 Clear 49 9.5 43 6.2 80 80 Calm 30.18 1022 10 16.0934 0 0
5:15 am 05:15 Clear 47 8.5 43 6.3 86 86 SSE 3 6 30.18 1022 10 16.0934 0 0
5:35 am 05:35 Mostly Cloudy 48 9.1 44 6.6 85 85 SSE 5 7 30.18 1022 10 16.0934 0 0
5:55 am 05:55 Mostly Cloudy 49 9.3 44 6.5 83 83 SSE 3 6 30.18 1022 10 16.0934 0 0
6:15 am 06:15 Cloudy 49 9.3 44 6.6 83 83 SSE 5 7 30.18 1022 10 16.0934 0 0
6:35 am 06:35 Mostly Cloudy 48 8.8 44 6.5 86 86 SE 5 7 30.18 1022 10 16.0934 0 0
6:55 am 06:55 Partly Cloudy 47 8.5 43 6.3 86 86 Calm 30.18 1022 10 16.0934 0 0
7:15 am 07:15 Clear 47 8.3 43 6.1 86 86 Calm 30.18 1022 10 16.0934 0 0
7:35 am 07:35 Sunny 46 7.8 42 5.5 86 86 Calm 30.21 1023 10 16.0934 0 0
7:55 am 07:55 Mostly Cloudy 47 8.5 44 6.6 88 88 SSE 5 7 30.21 1023 10 16.0934 0 0
8:15 am 08:15 Partly Cloudy 49 9.3 45 7.1 86 86 Calm 30.21 1023 10 16.0934 0 0
8:35 am 08:35 Partly Cloudy 50 10 45 7.2 83 83 ESE 3 6 30.21 1023 10 16.0934 0 0
8:55 am 08:55 Partly Cloudy 51 10.5 45 7.3 81 81 SE 7 11 30.18 1022 10 16.0934 0 0
9:15 am 09:15 Sunny 53 11.9 46 7.6 75 75 ESE 8 13 30.18 1022 10 16.0934 0 0
9:35 am 09:35 Sunny 55 12.7 45 7.2 69 69 ESE 10 17 30.18 1022 10 16.0934 0 0
9:55 am 09:55 Sunny 56 13.5 44 6.9 65 65 SE 9 15 30.18 1022 10 16.0934 0 0
10:15 am 10:15 Sunny 59 15.1 43 6.1 55 55 SSE 10 17 30.18 1022 10 16.0934 0 0
10:35 am 10:35 Partly Cloudy 60 15.7 40 4.6 48 48 SSE 10 17 30.18 1022 10 16.0934 0 0
10:55 am 10:55 Partly Cloudy 62 16.7 39 4.1 43 43 SSE 13 20 30.18 1022 10 16.0934 0 0
11:15 am 11:15 Sunny 63 17.2 39 3.7 41 41 SE 15 24 30.15 1021 10 16.0934 0 0
11:35 am 11:35 Sunny 64 17.8 38 3.6 39 39 SE 15 24 30.12 1020 10 16.0934 0 0
11:55 am 11:55 Sunny 65 18.2 39 3.7 38 38 SSE 10 17 30.12 1020 10 16.0934 0 0
12:15 pm 12:15 Sunny 64 18 41 5 43 43 SE 14 22 30.12 1020 10 16.0934 0 0
12:35 pm 12:35 Mostly Cloudy 65 18.6 44 6.4 45 45 SSE 13 20 30.12 1020 10 16.0934 0 0
12:55 pm 12:55 Partly Cloudy 67 19.2 43 6 42 42 SE 15 24 30.09 1019 10 16.0934 0 0
1:15 pm 13:15 Sunny 67 19.7 42 5.8 40 40 ESE 14 22 30.09 1019 10 16.0934 0 0
1:35 pm 13:35 Sunny 69 20.3 43 6 39 39 SSE 13 20 30.09 1019 10 16.0934 0 0
1:55 pm 13:55 Sunny 69 20.4 44 6.7 41 41 SSE 14 22 30.09 1019 10 16.0934 0 0
2:15 pm 14:15 Sunny 68 20 44 6.9 43 43 SSE 9 15 30.09 1019 10 16.0934 0 0
2:35 pm 14:35 Sunny 69 20.6 44 6.9 41 41 SSE 13 20 30.03 1017 10 16.0934 0 0
2:55 pm 14:55 Sunny 70 21 44 6.6 39 39 S 12 19 30.03 1017 10 16.0934 0 0
3:15 pm 15:15 Sunny 70 21.2 44 6.6 39 39 SE 8 13 30.03 1017 10 16.0934 0 0
3:35 pm 15:35 Partly Cloudy 71 21.4 45 7.1 40 40 SE 9 15 30.03 1017 10 16.0934 0 0
3:55 pm 15:55 Partly Cloudy 72 22 44 6.6 37 37 SSE 8 13 30.03 1017 10 16.0934 0 0
4:15 pm 16:15 Partly Cloudy 71 21.9 44 6.4 37 37 SSE 12 19 30.03 1017 10 16.0934 0 0
4:35 pm 16:35 Mostly Cloudy 71 21.5 44 6.6 38 38 SSE 9 15 30.03 1017 10 16.0934 0 0
4:55 pm 16:55 Cloudy 70 21.3 44 6.4 38 38 S 9 15 30.03 1017 10 16.0934 0 0
5:15 pm 17:15 Cloudy 71 21.5 43 6.3 37 37 S 10 17 30.03 1017 10 16.0934 0 0
5:35 pm 17:35 Cloudy 71 21.6 43 6.1 37 37 S 8 13 30.03 1017 10 16.0934 0 0
5:55 pm 17:55 Cloudy 70 21.2 42 5.7 37 37 SSE 8 13 30.03 1017 10 16.0934 0 0
6:15 pm 18:15 Cloudy 70 21.1 41 4.8 35 35 SE 8 13 30.03 1017 10 16.0934 0 0
6:35 pm 18:35 Cloudy 69 20.8 41 4.9 35 35 SSE 7 11 30.03 1017 10 16.0934 0 0
7:15 pm 19:15 Cloudy 68 20 40 4.6 36 36 SE 6 9 30.06 1018 10 16.0934 0 0
7:35 pm 19:35 Cloudy 66 19 43 5.9 42 42 ESE 7 11 30.06 1018 10 16.0934 0 0
7:55 pm 19:55 Cloudy 65 18.6 42 5.7 43 43 ESE 8 13 30.06 1018 10 16.0934 0 0
8:15 pm 20:15 Cloudy 65 18.5 41 5.1 41 41 ESE 9 15 30.06 1018 10 16.0934 0 0
8:35 pm 20:35 Cloudy 65 18.3 41 5.1 42 42 ESE 9 15 30.06 1018 10 16.0934 0 0
8:55 pm 20:55 Cloudy 64 18 41 5.1 43 43 ESE 8 13 30.06 1018 10 16.0934 0 0
9:15 pm 21:15 Cloudy 64 17.9 41 5.2 43 43 ESE 8 13 30.06 1018 10 16.0934 0 0
9:35 pm 21:35 Cloudy 64 17.8 41 5 43 43 SE 8 13 30.09 1019 10 16.0934 0 0
9:55 pm 21:55 Cloudy 64 17.6 41 4.9 43 43 ESE 7 11 30.09 1019 10 16.0934 0 0
10:15 pm 22:15 Cloudy 64 17.5 41 5 44 44 SE 9 15 30.09 1019 10 16.0934 0 0
10:35 pm 22:35 Cloudy 63 17.4 40 4.7 43 43 SE 8 13 30.12 1020 10 16.0934 0 0
10:55 pm 22:55 Cloudy 63 17.3 40 4.4 43 43 SE 9 15 30.12 1020 10 16.0934 0 0
11:15 pm 23:15 Cloudy 63 17.1 40 4.4 43 43 SE 7 11 30.15 1021 10 16.0934 0 0
11:35 pm 23:35 Cloudy 63 17 40 4.3 43 43 SE 7 11 30.15 1021 10 16.0934 0 0
11:55 pm 23:55 Cloudy 62 16.7 39 3.8 42 42 ESE 8 13 30.15 1021 10 16.0934 0 0

Powered by AerisWeather